STARLINK-2379, 47798

Orbit data source: Space-Track

STARLINK-2379, 47798 is a payload satellite owned by SpaceX/Seattle (US) in LEO that was launched on Thu, 11 Mar 2021 UTC via an FALCON 9 launch vehicle from the Air Force Eastern Test Range (AFETR). Payload-class satellites include a variety of spacecraft equipped with specific instruments for various scientific and technological missions. These include communications satellites like Starlink; space stations such as the ISS; scientific satellites like the Hubble; Earth observation satellites from companies like Planet Labs, Umbra, and HawkEye 360; GPS; miniature CubeSats for education and research; and military/defense satellites.

Loading next visibility...
Identifier
47798, 2021-018M
Orbit
LEO
Country
Flag of USUS
Related business
Manufacturer
SpaceX/Seattle
Mission
Operational Commercial Communications
Bus & Motor
STARLINK, Unknown motor
Mass
260 kg wet, ~248 kg dry
Launch date (UTC)
2021-03-11 (5 years ago)
Launch vehicle
FALCON 9
Launch site
Air Force Eastern Test Range (AFETR)
Object type
Payload
Rocket body
Debris
Shape & HBR
Box + 1 Pan, 10.1 m
Radar Cross Section
13.562 m², Large (>1 m²)

Expand to show TLE details & history
Last TLE update: 13 hours ago

TLE from 13 hours ago
0 STARLINK-2379
1 47798U 21018M   26248.04174371  .00000122  00000-0  15705-4 0  9993
2 47798  53.1611 124.5031 0001326  93.1125 267.0028 15.31692916304244
Epoch: 2026-09-05T01:00Z
TLE epoch observation values (Epoch: 2026-09-05T01:00:06.656Z)
Latitude
-0.00004°
Longitude
125.31843°
Altitude
471.709 km
Speed
7.631 km/s
True Right ascension
08h 18m 00s
True Declination
0° 00' 00"
Sunlit
Object was in daylight at epoch
Visualization orbit readout
Latitude
Unknown
Longitude
Unknown
Altitude
Unknown
Speed
Unknown
Apparent Right ascension
Unknown
Apparent Declination
Unknown
Sunlit
N/A
Visualization observer readout
Local Sidereal Time
06:10:55
Azimuth
Unknown
Elevation
Unknown
Doppler factor
Unknown
Orbital elements
Apogee altitude
471.926 km
Perigee altitude
470.109 km
Semi-major axis
6,849.155 km
Eccentricity
0.00013
Inclination
53.1611°
RAAN
124.5031°
Arg. of periapsis
93.1125°
True anomaly
266.98763°
Mean anomaly
267.0028°
Eccentric anomaly
266.99521°
Mean motion
3.82902 °/min
Orbital period
94.02 mins
BSTAR
0.000015705
Loading maneuver chart data...
Computing Atmospheric mass density...
Loading historical data...
Loading historical data...
Loading historical data...
Loading historical data...
Loading historical data...
Loading historical data...
Loading historical data...

Documentation

Showing up to 5 results
|